Location: Centerville
(32.8776°N, 96.6203°W)
Time: 13:29:58
(UTC+00:00)

OBJECT-B - Pass Details

Date: 17 June 2021
Orbit: 414 x 423 km, 97.0° (Epoch: 05 June)

Event Time Altitude Azimuth Distance (km) Brightness Sun altitude
Exits shadow 02:46:22 - 192° (SSW) 1,959 3.9 -12.9°
Reaches altitude 10° 02:47:34 10° 200° (SSW) 1,488 3.3 -13.1°
Maximum altitude 02:50:24 29° 262° (W) 790 2.6 -13.6°
Drops below altitude 10° 02:53:15 10° 325° (NW) 1,495 4.8 -14.0°
Sets 02:55:24 0° 337° (NNW) 2,361 5.8 -14.4°
